Weather History for K36U - October, 2012

Change the Weather History Date:

Wednesday, October 31, 2012

  Actual Average (KPVU) Record (KPVU)
Temperature  
Mean Temperature 48 °F -  
Max Temperature 71 °F 50 °F 75 °F (2014)
Min Temperature 26 °F 30 °F 21 °F (2002)
Degree Days  
Heating Degree Days 16    
Moisture  
Dew Point 27 °F    
Average Humidity 58    
Maximum Humidity 93    
Minimum Humidity 16    
Precipitation  
Precipitation 0.00 in - - ()
Sea Level Pressure  
Sea Level Pressure 30.18 in    
Wind  
Wind Speed 1 mph (SSW)    
Max Wind Speed 10 mph    
Max Gust Speed -    
Visibility 10 miles    
Events      
Averages and records for this station are not official NWS values.
T = Trace of Precipitation, MM = Missing Value Source: NWS Daily Summary

Daily Weather History Graph

Daily Weather History Graph

Search for Another Location

Airport or City:

Trip Planner

Search our weather history database for the weather conditions in past years. The results will help you decide how hot, cold, wet, or windy it might be!

Date:

Astronomy

Oct. 31, 2012 Rise Set
Actual Time 7:55 AM MDT 6:22 PM MDT
Civil Twilight 7:26 AM MDT 6:51 PM MDT
Nautical Twilight 6:54 AM MDT 7:23 PM MDT
Astronomical Twilight 6:22 AM MDT 7:55 PM MDT
Moon 7:36 PM MDT (10/31) 9:39 AM MDT (10/31)
Length of Visible Light 11h 24m
Length of Day
10h 27m
Full, 97% of the Moon is Illuminated
Oct 31
Full
Nov 6
Last Quarter
Nov 13
New
Nov 20
First Quarter
Nov 28
Full

Hourly Weather History & Observations

Time (MDT) Temp. Windchill Dew Point Humidity Pressure Visibility Wind Dir Wind Speed Gust Speed Precip Events Conditions
12:15 AM 35.6 °F - 28.4 °F 75% 30.23 in 10.0 mi Calm Calm - N/A   Clear
12:35 AM 37.4 °F - 28.4 °F 70% 30.23 in 10.0 mi Calm Calm - N/A   Clear
12:55 AM 37.4 °F - 30.2 °F 75% 30.23 in 10.0 mi Calm Calm - N/A   Clear
1:15 AM 35.6 °F - 30.2 °F 81% 30.24 in 10.0 mi Calm Calm - N/A   Clear
1:35 AM 32.0 °F - 28.4 °F 87% 30.24 in 10.0 mi Calm Calm - N/A   Clear
1:55 AM 32.0 °F - 28.4 °F 87% 30.24 in 10.0 mi Calm Calm - N/A   Clear
2:15 AM 32.0 °F - 28.4 °F 87% 30.24 in 10.0 mi Calm Calm - N/A   Clear
2:35 AM 32.0 °F - 26.6 °F 80% 30.24 in 10.0 mi Calm Calm - N/A   Clear
2:55 AM 32.0 °F - 26.6 °F 80% 30.25 in 10.0 mi Calm Calm - N/A   Clear
3:15 AM 30.2 °F - 26.6 °F 86% 30.25 in 10.0 mi Calm Calm - N/A   Clear
3:35 AM 28.4 °F - 26.6 °F 93% 30.25 in 10.0 mi Calm Calm - N/A   Clear
3:55 AM 28.4 °F - 24.8 °F 86% 30.24 in 10.0 mi Calm Calm - N/A   Clear
4:15 AM 30.2 °F - 26.6 °F 86% 30.24 in 10.0 mi Calm Calm - N/A   Clear
4:35 AM 28.4 °F - 26.6 °F 93% 30.23 in 10.0 mi Calm Calm - N/A   Clear
4:55 AM 30.2 °F - 26.6 °F 86% 30.24 in 10.0 mi Calm Calm - N/A   Clear
5:15 AM 28.4 °F - 24.8 °F 86% 30.24 in 10.0 mi Calm Calm - N/A   Clear
5:35 AM 28.4 °F - 24.8 °F 86% 30.24 in 10.0 mi Calm Calm - N/A   Clear
5:55 AM 28.4 °F - 24.8 °F 86% 30.24 in 10.0 mi Calm Calm - N/A   Clear
6:15 AM 28.4 °F - 24.8 °F 86% 30.25 in 10.0 mi Calm Calm - N/A   Clear
6:35 AM 28.4 °F - 24.8 °F 86% 30.25 in 10.0 mi Calm Calm - N/A   Clear
6:55 AM 28.4 °F - 26.6 °F 93% 30.25 in 10.0 mi Calm Calm - N/A   Clear
7:15 AM 26.6 °F - 23.0 °F 86% 30.25 in 10.0 mi Calm Calm - N/A   Clear
7:35 AM 26.6 °F - 23.0 °F 86% 30.25 in 10.0 mi Calm Calm - N/A   Clear
7:55 AM 28.4 °F - 26.6 °F 93% 30.25 in 10.0 mi Calm Calm - N/A   Clear
8:15 AM 26.6 °F - 24.8 °F 93% 30.25 in 7.0 mi Calm Calm - N/A   Clear
8:35 AM 28.4 °F - 26.6 °F 93% 30.26 in 7.0 mi Calm Calm - N/A   Clear
8:55 AM 32.0 °F - 28.4 °F 87% 30.26 in 10.0 mi Calm Calm - N/A   Clear
9:15 AM 35.6 °F - 30.2 °F 81% 30.26 in 10.0 mi Calm Calm - N/A   Clear
9:35 AM 33.8 °F - 30.2 °F 87% 30.26 in 10.0 mi Calm Calm - N/A   Clear
9:55 AM 35.6 °F - 30.2 °F 81% 30.26 in 10.0 mi Calm Calm - N/A   Clear
10:15 AM 41.0 °F - 32.0 °F 70% 30.26 in 10.0 mi Calm Calm - N/A   Clear
10:35 AM 42.8 °F - 32.0 °F 66% 30.25 in 10.0 mi Calm Calm - N/A   Clear
10:55 AM 44.6 °F - 32.0 °F 61% 30.25 in 10.0 mi Calm Calm - N/A   Clear
11:15 AM 46.4 °F - 32.0 °F 57% 30.24 in 10.0 mi Calm Calm - N/A   Clear
11:35 AM 48.2 °F - 30.2 °F 50% 30.24 in 10.0 mi Calm Calm - N/A   Clear
11:55 AM 51.8 °F - 30.2 °F 44% 30.23 in 10.0 mi Calm Calm - N/A   Clear
12:15 PM 53.6 °F - 30.2 °F 41% 30.23 in 10.0 mi Calm Calm - N/A   Clear
12:35 PM 55.4 °F - 32.0 °F 41% 30.21 in 10.0 mi Calm Calm - N/A   Clear
12:55 PM 57.2 °F - 30.2 °F 36% 30.20 in 10.0 mi Calm Calm - N/A   Clear
1:15 PM 59.0 °F - 28.4 °F 31% 30.18 in 10.0 mi Calm Calm - N/A   Clear
1:35 PM 62.6 °F - 30.2 °F 30% 30.17 in 10.0 mi Calm Calm - N/A   Clear
1:55 PM 62.6 °F - 28.4 °F 27% 30.16 in 10.0 mi Calm Calm - N/A   Clear
2:15 PM 64.4 °F - 28.4 °F 26% 30.15 in 10.0 mi Calm Calm - N/A   Clear
2:35 PM 66.2 °F - 28.4 °F 24% 30.13 in 10.0 mi Calm Calm - N/A   Clear
2:55 PM 68.0 °F - 28.4 °F 23% 30.12 in 10.0 mi Calm Calm - N/A   Clear
3:15 PM 69.8 °F - 28.4 °F 21% 30.11 in 10.0 mi Calm Calm - N/A   Clear
3:35 PM 69.8 °F - 28.4 °F 21% 30.10 in 10.0 mi Calm Calm - N/A   Clear
3:55 PM 71.6 °F - 23.0 °F 16% 30.10 in 10.0 mi WSW 8.1 mph - N/A   Clear
4:15 PM 71.6 °F - 23.0 °F 16% 30.09 in 10.0 mi West 10.4 mph - N/A   Clear
4:35 PM 71.6 °F - 23.0 °F 16% 30.08 in 10.0 mi SW 8.1 mph - N/A   Clear
4:55 PM 71.6 °F - 24.8 °F 17% 30.08 in 10.0 mi WSW 8.1 mph - N/A   Clear
5:15 PM 71.6 °F - 23.0 °F 16% 30.07 in 10.0 mi SSW 5.8 mph - N/A   Clear
5:35 PM 68.0 °F - 24.8 °F 20% 30.07 in 10.0 mi SW 6.9 mph - N/A   Clear
6:15 PM 60.8 °F - 26.6 °F 27% 30.08 in 10.0 mi SW 5.8 mph - N/A   Clear
6:35 PM 55.4 °F - 26.6 °F 33% 30.08 in 10.0 mi South 4.6 mph - N/A   Clear
6:55 PM 53.6 °F - 24.8 °F 33% 30.08 in 7.0 mi Calm Calm - N/A   Clear
7:15 PM 55.4 °F - 24.8 °F 31% 30.10 in 10.0 mi SE 5.8 mph - N/A   Clear
7:35 PM 57.2 °F - 24.8 °F 29% 30.10 in 10.0 mi SE 8.1 mph - N/A   Clear
7:55 PM 55.4 °F - 26.6 °F 33% 30.10 in 10.0 mi South 5.8 mph - N/A   Clear
8:15 PM 55.4 °F - 26.6 °F 33% 30.10 in 10.0 mi South 3.5 mph - N/A   Clear
8:35 PM 55.4 °F - 24.8 °F 31% 30.11 in 10.0 mi Calm Calm - N/A   Clear
8:55 PM 50.0 °F - 26.6 °F 40% 30.11 in 10.0 mi SSW 3.5 mph - N/A   Clear
9:15 PM 46.4 °F - 28.4 °F 50% 30.11 in 10.0 mi Calm Calm - N/A   Clear
9:35 PM 46.4 °F - 28.4 °F 50% 30.11 in 10.0 mi Calm Calm - N/A   Clear
9:55 PM 44.6 °F - 28.4 °F 53% 30.11 in 10.0 mi Calm Calm - N/A   Clear
10:15 PM 42.8 °F - 28.4 °F 57% 30.11 in 10.0 mi Calm Calm - N/A   Clear
10:35 PM 44.6 °F 43.1 °F 26.6 °F 49% 30.11 in 10.0 mi WSW 3.5 mph - N/A   Clear
10:55 PM 42.8 °F - 28.4 °F 57% 30.11 in 10.0 mi Calm Calm - N/A   Clear
11:15 PM 41.0 °F - 28.4 °F 61% 30.11 in 10.0 mi Calm Calm - N/A   Clear
11:35 PM 37.4 °F - 28.4 °F 70% 30.11 in 10.0 mi Calm Calm - N/A   Clear
11:55 PM 37.4 °F - 28.4 °F 70% 30.11 in 10.0 mi Calm Calm - N/A   Clear